星链-1049 (STARLINK-1049 )

导读 | 豆包AI

STARLINK-1049是美国SpaceX星链星座中的卫星,于2019年11月11日发射升空,属于星链早期部署批次。星链项目旨在构建全球卫星互联网星座,该卫星承担低轨通信测试与组网任务,依托低轨轨道优势,助力实现全球范围宽带互联网覆盖,推动星链星座通信网络能力的逐步构建。

Basic Information
目录编号:
44754
目录名称:
STARLINK-1049
国际标识:
2019-074AT
轨道中心:
EARTH
卫星名称:
星链-1049
卫星全名:
星链-1049 (STARLINK-1049 )
卫星状态:
已陨落 最后检测时间 2023-10-27
发射日期:
2019-11-11 UTC
国别 :
美国 (US)
星等 :
--
Orbit Information
数据来源 国际轨道数据
星历时间: 2023-10-28T03:38:20+0800
轨道信息已过期868天
半长轴: 6560.308km
偏心率: 0.0003032
轨道倾角: 53.027°
近地点辐角 17.560°
升交点赤经 1.729°
平近点角 83.841°
近地点: 180.183km
远地点: 184.163km
周期: 88.135分钟
每日圈数: 16.338661
Detailed Information
固有亮度:
5
最大亮度:
2.5
卫星平台:
Starlink V1.0
覆盖范围:
全球
运营商:
太空探索技术公司
运营商所在国:
美国
制造商(研发单位):
太空探索技术公司
制造商所在国:
美国
使用方式:
暂无
Satellite Introduction
星链(Starlink)计划是由太空探索技术公司(SpaceX)提出的一个巨型低轨卫星互联网星座项目,计划在2019年至2024年间在太空搭建由约1.2万颗卫星组成的“星链”网络,其中1584颗将部署在地球上空550千米处的近地轨道,并从2020年开始工作。该卫星已陨落。